Hourly Data Report for March 19, 2020

MIRAMICHI RCS
NEW BRUNSWICK
Current Station Operator: ECCC - MSC

47°00'34.000" N
65°27'54.000" W
33.00 m
8100989
71744
ACQ

Download Data

Hourly Data (March 2020)
Hourly Data Report for March 19, 2020
TIME
LST
Temp Definition
°C
Dew Point Definition
°C
Rel Hum Definition
%
Precip. Amount Definition
mm

Wind Dir Definition
10's deg

Wind Spd Definition
km/h
Visibility Definition
km
Stn Press Definition
kPa
Hmdx Definition


Wind Chill Definition


Weather Definition


00:00 -6.0 -17.9 39 LegendMM 32 3   102.94   -7 LegendNANA
01:00 -8.5 -17.2 50 LegendMM 27 2   103.00   -10 LegendNANA
02:00 -11.1 -15.9 67 LegendMM 25 2   103.06   -12 LegendNANA
03:00 -13.2 -17.6 69 LegendMM 0 1   103.00   -14 LegendNANA
04:00 -13.1 -16.7 74 LegendMM 28 3   103.04   -15 LegendNANA
05:00 -12.1 -16.3 71 LegendMM 27 7   103.14   -16 LegendNANA
06:00 -12.2 -16.3 72 LegendMM 27 4   103.20   -15 LegendNANA
07:00 -13.1 -16.6 75 LegendMM 25 3   103.20   -15 LegendNANA
08:00 -10.0 -16.6 59 LegendMM 25 6   103.27   -14 LegendNANA
09:00 -7.6 -16.3 50 LegendMM 22 3   103.29   -9 LegendNANA
10:00 -2.5 -13.9 41 LegendMM 13 2   103.24   -3 LegendNANA
11:00 -0.2 -13.5 36 LegendMM 3 2   103.17   -1 LegendNANA
12:00 1.7 -12.6 34 LegendMM 15 10   103.14     LegendNANA
13:00 2.4 -10.9 37 LegendMM 14 11   103.05     LegendNANA
14:00 3.5 -9.4 38 LegendMM 18 11   102.98     LegendNANA
15:00 4.6 -9.1 36 LegendMM 14 10   102.81     LegendNANA
16:00 4.8 -6.0 45 LegendMM 17 10   102.71     LegendNANA
17:00 3.0 -6.8 48 LegendMM 7 15   102.68     LegendNANA
18:00 1.7 -5.2 60 LegendMM 8 13   102.85     LegendNANA
19:00 1.3 -4.7 64 LegendMM 11 8   102.84     LegendNANA
20:00 1.5 -5.8 58 LegendMM 13 8   102.76     LegendNANA
21:00 1.6 -5.3 60 LegendMM 15 6   102.72     LegendNANA
22:00 1.9 -4.5 63 LegendMM 19 6   102.69     LegendNANA
23:00 1.9 -3.6 67 LegendMM 16 6   102.61     LegendNANA

Notes on Data Quality.

Legend

  • E = Estimated
  • M = Missing
  • NA = Not Available*
  • [empty] = Indicates an unobserved value
Date modified: